Time,TemperatureF,DewpointF,PressureIn,WindDirection,WindDirectionDegrees,WindSpeedMPH,WindSpeedGustMPH,Humidity,HourlyPrecipIn,Conditions,Clouds,dailyrainin,SolarRadiationWatts/m^2,SoftwareType,DateUTC
2013-07-19 00:01:00,74.0,71.0,-100.00,SSW,213,2.0,3.0,90,0.00,,,0.00,0.000000,,2013-07-19 04:01:00,
2013-07-19 00:22:00,74.0,71.0,-100.00,SSW,213,2.0,3.0,90,0.00,,,0.00,0.000000,,2013-07-19 04:22:00,
2013-07-19 00:33:00,74.0,71.0,-100.00,SSW,213,2.0,3.0,90,0.00,,,0.00,0.000000,,2013-07-19 04:33:00,
2013-07-19 00:44:00,74.0,71.0,-100.00,SSW,213,2.0,3.0,90,0.00,,,0.00,0.000000,,2013-07-19 04:44:00,
2013-07-19 00:52:00,74.0,71.0,-100.00,SSW,213,2.0,3.0,90,0.00,,,0.00,0.000000,,2013-07-19 04:52:00,
2013-07-19 01:01:00,73.0,69.0,-100.00,SW,216,2.0,4.0,88,0.00,,,0.00,0.000000,,2013-07-19 05:01:00,
2013-07-19 01:32:00,73.0,69.0,-100.00,SW,216,2.0,4.0,88,0.00,,,0.00,0.000000,,2013-07-19 05:32:00,
2013-07-19 01:43:00,73.0,69.0,-100.00,SW,216,2.0,4.0,88,0.00,,,0.00,0.000000,,2013-07-19 05:43:00,
2013-07-19 01:53:00,73.0,69.0,-100.00,SW,216,2.0,4.0,88,0.00,,,0.00,0.000000,,2013-07-19 05:53:00,
2013-07-19 02:01:00,72.0,69.0,-100.00,SSW,203,2.0,4.0,89,0.00,,,0.00,0.000000,,2013-07-19 06:01:00,
2013-07-19 02:33:00,72.0,69.0,-100.00,SSW,203,2.0,4.0,89,0.00,,,0.00,0.000000,,2013-07-19 06:33:00,
2013-07-19 02:43:00,72.0,69.0,-100.00,SSW,203,2.0,4.0,89,0.00,,,0.00,0.000000,,2013-07-19 06:43:00,
2013-07-19 02:53:00,72.0,69.0,-100.00,SSW,203,2.0,4.0,89,0.00,,,0.00,0.000000,,2013-07-19 06:53:00,
2013-07-19 03:01:00,71.0,69.0,-100.00,ENE,58,1.0,3.0,95,0.00,,,0.00,0.000000,,2013-07-19 07:01:00,
2013-07-19 03:33:00,71.0,69.0,-100.00,ENE,58,1.0,3.0,95,0.00,,,0.00,0.000000,,2013-07-19 07:33:00,
2013-07-19 03:43:00,71.0,69.0,-100.00,ENE,58,1.0,3.0,95,0.00,,,0.00,0.000000,,2013-07-19 07:43:00,
2013-07-19 03:53:00,71.0,69.0,-100.00,ENE,58,1.0,3.0,95,0.00,,,0.00,0.000000,,2013-07-19 07:53:00,
2013-07-19 04:01:00,70.0,69.0,-100.00,North,353,1.0,2.0,98,0.00,,,-99.99,0.000000,,2013-07-19 08:01:00,
2013-07-19 04:33:00,70.0,69.0,-100.00,North,353,1.0,2.0,98,0.00,,,-99.99,0.000000,,2013-07-19 08:33:00,
2013-07-19 04:43:00,70.0,69.0,-100.00,North,353,1.0,2.0,98,0.00,,,-99.99,0.000000,,2013-07-19 08:43:00,
2013-07-19 04:52:00,70.0,69.0,-100.00,North,353,1.0,2.0,98,0.00,,,-99.99,0.000000,,2013-07-19 08:52:00,
2013-07-19 05:01:00,69.0,69.0,-100.00,ESE,110,1.0,2.0,99,0.00,,,-99.99,0.000000,,2013-07-19 09:01:00,
2013-07-19 05:32:00,69.0,69.0,-100.00,ESE,110,1.0,2.0,99,0.00,,,-99.99,0.000000,,2013-07-19 09:32:00,
2013-07-19 05:43:00,69.0,69.0,-100.00,ESE,110,1.0,2.0,99,0.00,,,-99.99,0.000000,,2013-07-19 09:43:00,
2013-07-19 05:52:00,69.0,69.0,-100.00,ESE,110,1.0,2.0,99,0.00,,,-99.99,0.000000,,2013-07-19 09:52:00,
2013-07-19 06:01:00,69.0,69.0,-100.00,NNE,29,1.0,2.0,99,0.00,,,0.00,0.000000,,2013-07-19 10:01:00,
2013-07-19 06:33:00,69.0,69.0,-100.00,NNE,29,1.0,2.0,99,0.00,,,0.00,0.000000,,2013-07-19 10:33:00,
2013-07-19 06:43:00,69.0,69.0,-100.00,NNE,29,1.0,2.0,99,0.00,,,0.00,0.000000,,2013-07-19 10:43:00,
2013-07-19 06:52:00,69.0,69.0,-100.00,NNE,29,1.0,2.0,99,0.00,,,0.00,0.000000,,2013-07-19 10:52:00,
2013-07-19 07:01:00,70.0,70.0,-100.00,ENE,66,1.0,2.0,99,0.00,,,0.00,14.000000,,2013-07-19 11:01:00,
2013-07-19 07:33:00,70.0,70.0,-100.00,ENE,66,1.0,2.0,99,0.00,,,0.00,14.000000,,2013-07-19 11:33:00,
2013-07-19 07:43:00,70.0,70.0,-100.00,ENE,66,1.0,2.0,99,0.00,,,0.00,14.000000,,2013-07-19 11:43:00,
2013-07-19 07:52:00,70.0,70.0,-100.00,ENE,66,1.0,2.0,99,0.00,,,0.00,14.000000,,2013-07-19 11:52:00,
2013-07-19 08:01:00,71.0,71.0,-100.00,NNE,13,1.0,2.0,99,0.00,,,0.00,83.000000,,2013-07-19 12:01:00,
2013-07-19 08:33:00,71.0,71.0,-100.00,NNE,13,1.0,2.0,99,0.00,,,0.00,83.000000,,2013-07-19 12:33:00,
2013-07-19 08:44:00,71.0,71.0,-100.00,NNE,13,1.0,2.0,99,0.00,,,0.00,83.000000,,2013-07-19 12:44:00,
2013-07-19 08:53:00,71.0,71.0,-100.00,NNE,13,1.0,2.0,99,0.00,,,0.00,83.000000,,2013-07-19 12:53:00,
2013-07-19 09:01:00,73.0,73.0,-100.00,South,188,1.0,3.0,99,0.00,,,0.00,183.000000,,2013-07-19 13:01:00,
2013-07-19 09:32:00,73.0,73.0,-100.00,South,188,1.0,3.0,99,0.00,,,0.00,183.000000,,2013-07-19 13:32:00,
2013-07-19 09:43:00,73.0,73.0,-100.00,South,188,1.0,3.0,99,0.00,,,0.00,183.000000,,2013-07-19 13:43:00,
2013-07-19 09:53:00,73.0,73.0,-100.00,South,188,1.0,3.0,99,0.00,,,0.00,183.000000,,2013-07-19 13:53:00,
2013-07-19 10:01:00,80.0,74.0,-100.00,SSE,167,2.0,5.0,83,0.00,,,0.00,515.000000,,2013-07-19 14:01:00,
2013-07-19 10:33:00,80.0,74.0,-100.00,SSE,167,2.0,5.0,83,0.00,,,0.00,515.000000,,2013-07-19 14:33:00,
2013-07-19 10:43:00,80.0,74.0,-100.00,SSE,167,2.0,5.0,83,0.00,,,0.00,515.000000,,2013-07-19 14:43:00,
2013-07-19 10:53:00,80.0,74.0,-100.00,SSE,167,2.0,5.0,83,0.00,,,0.00,515.000000,,2013-07-19 14:53:00,
2013-07-19 11:01:00,84.0,76.0,-100.00,South,172,2.0,4.0,77,0.00,,,-99.99,752.000000,,2013-07-19 15:01:00,
2013-07-19 11:32:00,84.0,76.0,-100.00,South,172,2.0,4.0,77,0.00,,,-99.99,752.000000,,2013-07-19 15:32:00,
2013-07-19 11:43:00,84.0,76.0,-100.00,South,172,2.0,4.0,77,0.00,,,-99.99,752.000000,,2013-07-19 15:43:00,
2013-07-19 11:52:00,84.0,76.0,-100.00,South,172,2.0,4.0,77,0.00,,,-99.99,752.000000,,2013-07-19 15:52:00,
2013-07-19 12:01:00,88.0,77.0,-100.00,SSW,194,3.0,5.0,69,0.00,,,0.00,949.000000,,2013-07-19 16:01:00,
2013-07-19 12:32:00,88.0,77.0,-100.00,SSW,194,3.0,5.0,69,0.00,,,0.00,949.000000,,2013-07-19 16:32:00,
2013-07-19 12:43:00,88.0,77.0,-100.00,SSW,194,3.0,5.0,69,0.00,,,0.00,949.000000,,2013-07-19 16:43:00,
2013-07-19 12:53:00,88.0,77.0,-100.00,SSW,194,3.0,5.0,69,0.00,,,0.00,949.000000,,2013-07-19 16:53:00,
2013-07-19 13:01:00,85.0,74.0,-100.00,SSW,207,3.0,5.0,69,0.00,,,0.00,639.000000,,2013-07-19 17:01:00,
2013-07-19 13:32:00,85.0,74.0,-100.00,SSW,207,3.0,5.0,69,0.00,,,0.00,639.000000,,2013-07-19 17:32:00,
2013-07-19 13:43:00,85.0,74.0,-100.00,SSW,207,3.0,5.0,69,0.00,,,0.00,639.000000,,2013-07-19 17:43:00,
2013-07-19 13:52:00,85.0,74.0,-100.00,SSW,207,3.0,5.0,69,0.00,,,0.00,639.000000,,2013-07-19 17:52:00,
2013-07-19 14:01:00,90.0,76.0,-100.00,SSW,193,3.0,9.0,63,0.00,,,0.00,1125.000000,,2013-07-19 18:01:00,
2013-07-19 14:32:00,90.0,76.0,-100.00,SSW,193,3.0,9.0,63,0.00,,,0.00,1125.000000,,2013-07-19 18:32:00,
2013-07-19 14:43:00,90.0,76.0,-100.00,SSW,193,3.0,9.0,63,0.00,,,0.00,1125.000000,,2013-07-19 18:43:00,
2013-07-19 14:52:00,90.0,76.0,-100.00,SSW,193,3.0,9.0,63,0.00,,,0.00,1125.000000,,2013-07-19 18:52:00,
2013-07-19 15:01:00,83.0,69.0,-100.00,SSW,192,4.0,10.0,62,0.00,,,0.00,667.000000,,2013-07-19 19:01:00,
2013-07-19 15:32:00,83.0,69.0,-100.00,SSW,192,4.0,10.0,62,0.00,,,0.00,667.000000,,2013-07-19 19:32:00,
2013-07-19 15:43:00,83.0,69.0,-100.00,SSW,192,4.0,10.0,62,0.00,,,0.00,667.000000,,2013-07-19 19:43:00,
2013-07-19 15:52:00,83.0,69.0,-100.00,SSW,192,4.0,10.0,62,0.00,,,0.00,667.000000,,2013-07-19 19:52:00,
2013-07-19 16:01:00,80.0,72.0,-100.00,NW,310,2.0,7.0,77,0.00,,,0.00,191.000000,,2013-07-19 20:01:00,
2013-07-19 16:23:00,80.0,72.0,-100.00,NW,310,2.0,7.0,77,0.00,,,0.00,191.000000,,2013-07-19 20:23:00,
2013-07-19 16:33:00,80.0,72.0,-100.00,NW,310,2.0,7.0,77,0.00,,,0.00,191.000000,,2013-07-19 20:33:00,
2013-07-19 16:43:00,80.0,72.0,-100.00,NW,310,2.0,7.0,77,0.00,,,0.00,191.000000,,2013-07-19 20:43:00,
2013-07-19 16:52:00,80.0,72.0,-100.00,NW,310,2.0,7.0,77,0.00,,,0.00,191.000000,,2013-07-19 20:52:00,
2013-07-19 17:01:00,76.0,70.0,-100.00,NE,50,4.0,7.0,82,0.00,,,0.00,86.000000,,2013-07-19 21:01:00,
2013-07-19 17:22:00,76.0,70.0,-100.00,NE,50,4.0,7.0,82,0.00,,,0.00,86.000000,,2013-07-19 21:22:00,
2013-07-19 17:32:00,76.0,70.0,-100.00,NE,50,4.0,7.0,82,0.00,,,0.00,86.000000,,2013-07-19 21:32:00,
2013-07-19 17:43:00,76.0,70.0,-100.00,NE,50,4.0,7.0,82,0.00,,,0.00,86.000000,,2013-07-19 21:43:00,
2013-07-19 17:52:00,76.0,70.0,-100.00,NE,50,4.0,7.0,82,0.00,,,0.00,86.000000,,2013-07-19 21:52:00,
2013-07-19 18:01:00,76.0,70.0,-100.00,North,356,1.0,9.0,83,0.00,,,0.00,165.000000,,2013-07-19 22:01:00,
2013-07-19 18:32:00,76.0,70.0,-100.00,North,356,1.0,9.0,83,0.00,,,0.00,165.000000,,2013-07-19 22:32:00,
2013-07-19 18:43:00,76.0,70.0,-100.00,North,356,1.0,9.0,83,0.00,,,0.00,165.000000,,2013-07-19 22:43:00,
2013-07-19 18:52:00,76.0,70.0,-100.00,North,356,1.0,9.0,83,0.00,,,0.00,165.000000,,2013-07-19 22:52:00,
2013-07-19 19:01:00,76.0,70.0,-100.00,NNE,18,2.0,4.0,83,0.00,,,-99.99,149.000000,,2013-07-19 23:01:00,
2013-07-19 19:33:00,76.0,70.0,-100.00,NNE,18,2.0,4.0,83,0.00,,,-99.99,149.000000,,2013-07-19 23:33:00,
2013-07-19 19:43:00,76.0,70.0,-100.00,NNE,18,2.0,4.0,83,0.00,,,-99.99,149.000000,,2013-07-19 23:43:00,
2013-07-19 19:52:00,76.0,70.0,-100.00,NNE,18,2.0,4.0,83,0.00,,,-99.99,149.000000,,2013-07-19 23:52:00,
2013-07-19 20:01:00,74.0,70.0,-100.00,SSE,165,1.0,3.0,88,0.00,,,0.00,83.000000,,2013-07-20 00:01:00,
2013-07-19 20:32:00,74.0,70.0,-100.00,SSE,165,1.0,3.0,88,0.00,,,0.00,83.000000,,2013-07-20 00:32:00,
2013-07-19 20:43:00,74.0,70.0,-100.00,SSE,165,1.0,3.0,88,0.00,,,0.00,83.000000,,2013-07-20 00:43:00,
2013-07-19 20:52:00,74.0,70.0,-100.00,SSE,165,1.0,3.0,88,0.00,,,0.00,83.000000,,2013-07-20 00:52:00,
2013-07-19 21:01:00,71.0,69.0,-100.00,West,266,1.0,4.0,95,0.00,,,0.00,9.000000,,2013-07-20 01:01:00,
2013-07-19 21:32:00,71.0,69.0,-100.00,West,266,1.0,4.0,95,0.00,,,0.00,9.000000,,2013-07-20 01:32:00,
2013-07-19 21:52:00,71.0,69.0,-100.00,West,266,1.0,4.0,95,0.00,,,0.00,9.000000,,2013-07-20 01:52:00,
2013-07-19 22:01:00,70.0,69.0,-100.00,SW,236,1.0,2.0,98,0.00,,,0.00,0.000000,,2013-07-20 02:01:00,
2013-07-19 22:33:00,70.0,69.0,-100.00,SW,236,1.0,2.0,98,0.00,,,0.00,0.000000,,2013-07-20 02:33:00,
2013-07-19 22:44:00,70.0,69.0,-100.00,SW,236,1.0,2.0,98,0.00,,,0.00,0.000000,,2013-07-20 02:44:00,
2013-07-19 22:52:00,70.0,69.0,-100.00,SW,236,1.0,2.0,98,0.00,,,0.00,0.000000,,2013-07-20 02:52:00,
2013-07-19 23:01:00,70.0,69.0,-100.00,SW,227,1.0,4.0,98,0.00,,,0.00,0.000000,,2013-07-20 03:01:00,
2013-07-19 23:32:00,70.0,69.0,-100.00,SW,227,1.0,4.0,98,0.00,,,0.00,0.000000,,2013-07-20 03:32:00,
2013-07-19 23:44:00,70.0,69.0,-100.00,SW,227,1.0,4.0,98,0.00,,,0.00,0.000000,,2013-07-20 03:44:00,
2013-07-19 23:53:00,70.0,69.0,-100.00,SW,227,1.0,4.0,98,0.00,,,0.00,0.000000,,2013-07-20 03:53:00,